Location: Bidwell Hollow
(37.7387°N, 90.1707°W)
Time: 23:03:32
(UTC+00:00)

Altair - Pass Details

Date: 20 May 2026
Orbit: 1501 x 1682 km, 47.2° (Epoch: 6 June)

Event Time Altitude Azimuth Distance (km) Brightness Sun altitude
Exits shadow 06:44:56 16° 124° (SE) 3,380 9.1 -31.2°
Maximum altitude 06:45:16 16° 122° (ESE) 3,381 9.1 -31.2°
Drops below altitude 10° 06:50:26 10° 90° (E) 3,861 9.7 -30.9°
Sets 06:55:18 0° 70° (ENE) 4,884 10.6 -30.7°
